Zurück zum Katalog

CZ-2C R/B

AktivSSO
NORAD 40262·ROCKET BODY·🇨🇳 China

Gestartet Sep 28, 2014 von Jiuquan Satellite Launch Center

Loading…

Nächste Überflüge (nächste 24 Stunden)

TLE

AktuellSource: Space-Track

Epoche: Sep 14, 2026, 21:04 UTC

1 40262U 14059B   26257.87818986  .00000472  00000-0  75035-4 0  9997
2 40262  98.3456 122.4666 0040025 258.8357 100.8350 14.76560164642859

Verfolge CZ-2C R/B in Echtzeit mit AllMySat

Download on the App Store